Temp
10 9 9 9 9 9 10 10 10 9 9 10 10 10 9 9 10 10 9 10 10 9 9 9 9 10 9 9 10 8 7 7 7 7 7 7 6 7 7 7 7 7 6
11 10 9 9 9 9 9 9 10 10 10 10 10 10 10 9 9 9 9 9 9 9 10 9 9 9 9 9 9 8 8 8 7 6 7 7 7 6 6 6 7 6 5
12 11 11 10 10 10 10 9 9 9 9 9 9 9 9 9 9 9 9 9 9 9 9 9 9 10 9 9 9 8 8 7 7 6 6 7 6 5 5 5 4 3 2
12 11 11 11 10 10 10 10 10 9 9 9 9 9 9 10 10 10 10 10 10 9 9 9 9 9 9 8 8 7 7 7 6 6 5 5 5 5 5 4 3 1 1
12 12 11 11 11 10 10 10 9 9 9 9 9 9 9 9 9 9 10 10 9 9 9 9 9 8 8 7 7 6 6 5 5 5 5 4 4 4 3 3 1 0 -0
12 12 12 11 11 10 10 10 9 9 9 9 9 9 9 9 9 9 9 9 9 9 8 8 7 7 6 6 6 5 5 4 4 3 3 3 2 1 1 1 -0 -1 -2
13 13 12 12 11 11 10 10 9 9 9 9 9 9 9 9 9 9 9 9 8 8 7 7 6 5 4 4 4 3 2 2 2 1 0 -0 -1 -2 -2 -3 -3 -3 -4
13 13 13 12 12 11 11 10 9 9 9 9 9 9 9 9 9 8 8 7 7 6 5 4 3 3 2 1 -0 -1 -1 -1 -2 -2 -2 -3 -3 -3 -3 -3 -4 -4 -4
13 13 12 12 11 11 10 9 9 9 8 8 8 8 7 7 6 6 6 4 4 3 2 1 -0 -1 -2 -2 -2 -2 -2 -2 -2 -3 -3 -3 -4 -4 -4 -5 -6 -7 -7
12 10 10 10 9 9 9 9 8 8 8 6 6 5 4 4 3 3 3 2 1 0 -1 -2 -2 -2 -2 -2 -3 -3 -4 -4 -5 -5 -5 -6 -6 -7 -7 -8 -8 -8 -9
9 9 9 9 9 8 8 7 6 6 5 4 3 2 1 0 -0 -1 -1 -1 -1 -2 -2 -3 -3 -3 -3 -4 -4 -5 -6 -7 -8 -8 -8 -9 -9 -9 -9 -10 -10 -10 -10
8 8 7 7 7 6 5 4 4 3 3 2 1 -0 -1 -2 -3 -2 -2 -2 -3 -3 -3 -4 -5 -6 -6 -7 -8 -9 -9 -9 -10 -10 -10 -10 -10 -11 -11 -11 -11 -12 -12
8 6 5 4 4 4 4 2 2 1 1 -0 -1 -2 -3 -4 -4 -4 -3 -3 -4 -4 -6 -6 -7 -8 -9 -10 -10 -10 -11 -11 -12 -12 -11 -11 -12 -12 -13 -13 -13 -13 -13
5 4 2 3 2 2 2 0 -0 -1 -2 -3 -3 -3 -4 -5 -5 -5 -5 -5 -6 -7 -9 -10 -10 -11 -10 -10 -11 -11 -11 -12 -13 -13 -13 -14 -14 -14 -14 -14 -14 -14 -14
3 2 0 1 0 -1 -1 -1 -2 -3 -3 -3 -4 -5 -5 -6 -8 -7 -7 -7 -8 -9 -11 -11 -12 -12 -12 -12 -12 -13 -13 -14 -14 -15 -15 -15 -15 -15 -16 -16 -16 -16 -16
2 0 -0 -1 -1 -1 -2 -4 -5 -5 -5 -4 -5 -5 -7 -8 -9 -9 -9 -10 -10 -10 -12 -12 -13 -14 -14 -14 -14 -15 -15 -15 -16 -17 -17 -17 -17 -17 -17 -17 -17 -17 -17
0 -1 -2 -3 -3 -4 -4 -5 -5 -8 -7 -7 -7 -8 -8 -9 -10 -10 -11 -13 -12 -13 -14 -14 -15 -15 -16 -16 -16 -16 -17 -17 -18 -18 -18 -18 -18 -18 -19 -18 -18 -18 -17
-2 -3 -5 -6 -6 -7 -8 -9 -10 -11 -11 -10 -10 -10 -10 -10 -10 -11 -12 -14 -15 -15 -16 -16 -16 -17 -17 -17 -18 -18 -19 -19 -19 -19 -19 -19 -20 -19 -19 -19 -19 -19 -19
-3 -4 -4 -5 -6 -8 -9 -10 -11 -11 -12 -13 -14 -14 -14 -15 -14 -14 -13 -16 -17 -17 -17 -17 -18 -18 -19 -19 -19 -20 -20 -20 -20 -20 -20 -20 -20 -20 -20 -20 -20 -20 -19
-4 -4 -5 -6 -8 -10 -11 -12 -12 -13 -14 -15 -13 -14 -15 -16 -16 -17 -18 -18 -18 -18 -19 -19 -19 -19 -20 -20 -20 -20 -20 -21 -21 -21 -21 -21 -21 -21 -21 -21 -20 -20 -19
-5 -5 -6 -8 -11 -12 -12 -13 -14 -14 -15 -16 -14 -14 -14 -17 -17 -18 -18 -19 -20 -20 -20 -20 -21 -21 -21 -21 -21 -22 -22 -22 -22 -22 -22 -22 -22 -22 -21 -21 -21 -20 -20
-7 -7 -8 -10 -12 -12 -13 -14 -15 -16 -16 -16 -17 -16 -16 -18 -18 -19 -19 -20 -21 -21 -21 -22 -22 -22 -22 -22 -23 -23 -23 -23 -22 -23 -23 -23 -23 -22 -22 -21 -21 -21 -20
-7 -8 -9 -10 -11 -13 -14 -15 -16 -17 -17 -18 -18 -18 -19 -19 -20 -20 -21 -21 -21 -20 -20 -20 -20 -20 -22 -21 -20 -23 -23 -23 -23 -24 -24 -24 -23 -23 -22 -22 -22 -21 -21
-8 -9 -10 -13 -14 -15 -15 -16 -15 -16 -18 -18 -19 -19 -20 -20 -21 -21 -21 -19 -18 -19 -19 -19 -19 -19 -20 -20 -20 -20 -21 -22 -22 -22 -22 -23 -24 -24 -23 -23 -22 -22 -21
-10 -12 -13 -14 -16 -17 -17 -18 -18 -19 -19 -19 -20 -20 -21 -21 -21 -20 -19 -19 -19 -19 -19 -19 -19 -19 -19 -20 -20 -20 -21 -21 -21 -21 -21 -22 -23 -24 -24 -23 -22 -22 -21
-13 -14 -16 -17 -17 -18 -18 -18 -19 -19 -20 -20 -20 -20 -20 -21 -20 -18 -19 -19 -19 -19 -19 -19 -19 -19 -19 -20 -20 -20 -20 -20 -20 -20 -21 -21 -22 -24 -23 -23 -23 -22 -22
Height
1426 1430 1436 1442 1446 1450 1456 1460 1465 1470 1475 1479 1481 1486 1490 1493 1495 1496 1496 1498 1500 1501 1501 1502 1501 1502 1500 1499 1498 1496 1494 1490 1481 1475 1474 1474 1475 1474 1474 1471 1474 1475 1474
1424 1427 1431 1438 1442 1446 1451 1456 1461 1466 1470 1474 1478 1481 1484 1486 1488 1489 1490 1491 1493 1493 1494 1494 1493 1493 1491 1489 1487 1484 1481 1478 1475 1466 1468 1465 1463 1462 1462 1460 1458 1461 1464
1422 1425 1428 1433 1438 1442 1447 1451 1457 1461 1465 1469 1473 1475 1477 1479 1482 1483 1483 1484 1485 1486 1486 1485 1484 1482 1480 1477 1475 1472 1471 1467 1465 1460 1456 1457 1455 1454 1454 1450 1448 1448 1454
1416 1420 1424 1429 1434 1440 1445 1448 1452 1455 1460 1463 1466 1468 1471 1473 1476 1477 1478 1478 1477 1477 1477 1477 1475 1471 1468 1465 1465 1462 1460 1457 1455 1452 1449 1448 1447 1445 1445 1443 1441 1439 1439
1411 1416 1419 1424 1430 1436 1441 1445 1448 1450 1454 1458 1461 1464 1467 1469 1470 1470 1470 1470 1470 1469 1468 1466 1463 1461 1460 1459 1456 1454 1451 1449 1447 1445 1442 1439 1438 1437 1437 1435 1436 1436 1436
1406 1411 1416 1420 1426 1430 1435 1439 1443 1447 1451 1454 1457 1460 1463 1461 1459 1461 1462 1463 1461 1459 1458 1457 1455 1453 1451 1450 1448 1445 1444 1442 1441 1439 1437 1436 1433 1434 1432 1431 1431 1432 1432
1403 1409 1413 1416 1421 1427 1432 1436 1439 1442 1447 1447 1447 1450 1451 1451 1452 1454 1454 1453 1452 1451 1451 1449 1448 1445 1445 1444 1442 1440 1438 1436 1435 1434 1434 1432 1430 1430 1430 1429 1429 1428 1428
1401 1406 1410 1414 1419 1423 1428 1429 1430 1434 1437 1439 1442 1443 1444 1445 1445 1446 1446 1446 1446 1446 1445 1443 1444 1442 1441 1441 1439 1438 1437 1436 1435 1434 1433 1432 1431 1430 1430 1428 1427 1425 1424
1400 1404 1407 1411 1412 1414 1418 1421 1425 1428 1431 1433 1435 1436 1438 1439 1440 1440 1441 1442 1442 1443 1442 1442 1442 1441 1440 1440 1439 1438 1437 1435 1434 1433 1431 1430 1428 1427 1425 1423 1422 1420 1417
1388 1395 1398 1401 1407 1411 1415 1419 1421 1424 1427 1430 1431 1433 1434 1436 1438 1438 1440 1441 1441 1442 1442 1441 1441 1441 1440 1439 1438 1436 1434 1433 1431 1429 1427 1424 1423 1421 1420 1418 1417 1415 1414
1385 1393 1400 1401 1405 1409 1412 1416 1419 1422 1425 1429 1431 1433 1434 1436 1438 1439 1440 1441 1441 1442 1442 1441 1440 1438 1437 1436 1434 1433 1431 1430 1429 1427 1425 1423 1421 1420 1418 1416 1414 1412 1410
1382 1392 1401 1400 1402 1407 1412 1415 1419 1422 1425 1429 1432 1434 1437 1439 1440 1441 1442 1442 1442 1441 1440 1439 1438 1437 1434 1433 1432 1431 1429 1427 1427 1426 1424 1423 1420 1418 1415 1413 1411 1408 1406
1376 1392 1404 1403 1404 1406 1413 1417 1421 1425 1427 1430 1433 1435 1438 1440 1441 1442 1441 1441 1441 1440 1440 1438 1437 1436 1435 1433 1432 1430 1428 1427 1426 1425 1423 1422 1419 1417 1413 1410 1407 1404 1401
1383 1394 1408 1405 1408 1409 1411 1419 1423 1428 1431 1433 1433 1436 1438 1440 1440 1440 1440 1439 1439 1440 1439 1439 1438 1437 1436 1434 1433 1432 1430 1427 1425 1424 1422 1420 1417 1415 1411 1408 1404 1400 1396
1386 1402 1411 1409 1412 1412 1411 1419 1427 1430 1431 1433 1435 1437 1438 1438 1439 1439 1438 1438 1439 1439 1439 1439 1437 1436 1435 1434 1432 1431 1429 1426 1425 1422 1420 1417 1414 1412 1408 1405 1401 1397 1393
1395 1407 1413 1415 1416 1418 1420 1424 1427 1432 1433 1434 1435 1438 1439 1440 1439 1438 1438 1438 1439 1438 1438 1438 1437 1436 1435 1433 1431 1429 1428 1426 1423 1421 1418 1416 1413 1409 1405 1402 1398 1394 1390
1403 1406 1413 1417 1419 1423 1425 1428 1429 1432 1434 1436 1437 1438 1440 1441 1440 1438 1438 1438 1438 1437 1438 1438 1436 1435 1434 1432 1430 1429 1427 1425 1422 1420 1417 1414 1411 1407 1403 1399 1396 1392 1388
1405 1409 1415 1418 1420 1424 1429 1432 1435 1436 1437 1438 1438 1437 1439 1441 1438 1438 1439 1440 1439 1437 1438 1437 1436 1435 1434 1432 1431 1428 1426 1424 1421 1418 1416 1413 1409 1405 1401 1398 1394 1390 1386
1410 1413 1416 1418 1422 1426 1432 1436 1439 1441 1442 1443 1443 1441 1442 1441 1439 1438 1438 1438 1438 1439 1438 1438 1437 1435 1433 1431 1429 1428 1425 1423 1420 1417 1414 1411 1407 1403 1399 1396 1392 1388 1384
1414 1418 1420 1423 1426 1431 1434 1438 1439 1442 1443 1442 1441 1442 1444 1444 1442 1441 1439 1439 1439 1439 1438 1437 1436 1434 1432 1430 1428 1426 1423 1421 1418 1415 1412 1408 1404 1401 1397 1393 1390 1386 1382
1419 1422 1425 1429 1432 1434 1435 1438 1440 1443 1445 1443 1443 1443 1442 1444 1444 1443 1443 1440 1439 1439 1437 1436 1434 1433 1431 1429 1426 1424 1421 1419 1416 1413 1410 1406 1402 1399 1395 1392 1388 1384 1380
1423 1426 1429 1432 1435 1435 1437 1439 1440 1443 1446 1446 1446 1444 1443 1445 1445 1444 1442 1440 1438 1437 1436 1433 1431 1430 1428 1426 1423 1421 1418 1416 1413 1410 1407 1403 1400 1396 1393 1389 1385 1381 1378
1427 1430 1433 1435 1436 1438 1439 1440 1443 1446 1446 1447 1447 1447 1447 1446 1444 1443 1441 1439 1436 1434 1433 1430 1429 1427 1426 1423 1420 1418 1416 1414 1411 1407 1403 1400 1397 1394 1390 1386 1383 1379 1375
1431 1433 1436 1438 1439 1440 1442 1443 1444 1445 1447 1448 1449 1448 1447 1445 1444 1442 1439 1436 1434 1433 1431 1429 1428 1426 1424 1421 1419 1416 1413 1410 1407 1403 1399 1395 1392 1389 1387 1384 1380 1377 1373
1436 1437 1439 1439 1441 1443 1444 1446 1447 1447 1448 1449 1449 1448 1446 1445 1443 1440 1438 1435 1434 1432 1431 1429 1427 1425 1422 1420 1417 1414 1411 1407 1404 1400 1395 1391 1387 1384 1382 1380 1378 1375 1371
1440 1440 1441 1442 1443 1444 1446 1447 1448 1448 1448 1448 1447 1446 1445 1443 1441 1438 1436 1434 1433 1431 1429 1427 1425 1423 1420 1417 1414 1411 1408 1404 1400 1396 1391 1387 1383 1381 1379 1377 1374 1371 1368
Wind_Speed
24 24 25 25 23 25 27 27 29 27 28 27 28 33 32 32 31 31 34 37 34 33 33 35 38 38 39 39 43 46 51 52 53 56 52 48 52 54 54 46 49 53 57
22 24 24 25 25 26 27 31 29 30 29 28 31 28 29 31 31 34 36 37 35 38 41 40 40 39 44 47 51 50 46 47 55 59 57 50 51 55 53 47 45 47 54
23 23 23 24 24 26 26 28 28 29 28 28 28 30 31 32 34 34 36 38 40 38 39 39 44 46 49 48 46 43 42 46 48 54 54 49 48 48 47 48 48 49 40
25 25 25 24 25 24 24 25 28 27 27 28 29 28 29 27 27 28 29 32 34 35 40 38 39 41 41 39 39 39 38 40 43 44 48 47 45 45 45 50 46 43 44
26 26 26 24 23 23 23 23 23 25 25 23 23 23 23 24 25 28 29 32 35 37 31 35 39 38 35 34 33 34 34 35 38 41 44 45 44 45 43 43 40 41 41
26 26 24 23 22 23 22 22 21 21 21 20 20 20 20 26 31 31 31 34 37 37 32 32 32 31 33 33 32 32 31 31 33 32 35 37 35 35 32 32 35 33 28
24 23 23 22 22 21 19 19 19 18 17 23 26 26 25 27 29 32 33 31 29 28 28 27 25 23 23 23 24 25 24 25 26 25 24 23 22 21 18 17 17 19 21
22 21 20 20 19 18 19 23 24 24 25 25 26 27 29 28 27 27 25 23 19 16 13 11 12 13 15 16 15 15 14 13 12 12 13 13 14 16 17 19 21 24 28
18 18 18 19 25 27 25 25 23 22 22 22 20 18 16 15 14 12 9 6 6 6 4 6 8 10 9 11 12 14 15 17 17 17 17 18 19 21 23 22 21 18 21
32 28 28 28 26 24 21 20 20 18 17 14 12 9 8 6 3 2 3 4 4 5 6 7 8 9 11 13 15 17 18 19 20 21 21 22 22 22 22 22 21 23 23
29 24 22 23 22 21 20 19 17 16 16 16 14 14 11 10 9 8 7 6 6 7 8 10 11 13 16 18 18 17 16 16 16 18 18 18 18 17 16 17 16 17 20
30 27 26 27 27 25 23 23 20 19 18 16 14 14 13 11 10 9 8 8 9 10 11 12 15 16 17 15 16 17 16 15 15 15 15 14 13 13 16 18 21 24 27
37 33 29 30 29 26 22 22 21 18 16 16 13 13 11 9 8 6 7 8 10 11 12 14 16 17 15 15 19 20 17 16 15 17 16 14 15 17 19 19 20 20 20
39 34 28 28 27 26 25 23 21 17 16 15 13 10 9 7 6 7 10 12 13 13 13 14 13 13 14 14 14 14 14 13 14 14 13 15 18 19 20 20 22 23 25
35 31 27 27 26 29 27 22 18 17 14 12 11 8 7 7 9 10 11 13 13 12 10 10 12 13 13 13 13 13 13 15 16 16 19 22 21 22 23 24 24 26 28
32 29 26 26 25 23 23 24 20 15 10 9 8 6 7 6 6 10 13 12 12 10 9 11 11 12 13 14 15 15 15 17 18 20 20 20 21 22 24 25 23 24 26
31 30 26 23 22 21 20 17 18 15 10 9 7 6 6 7 8 10 10 12 15 11 11 11 12 13 14 14 15 15 16 16 17 17 18 19 20 20 21 22 22 22 22
28 26 24 22 21 19 17 16 13 12 11 10 9 10 10 10 11 10 8 8 11 14 13 12 12 12 12 13 13 14 15 16 16 18 18 19 19 20 21 21 21 22 23
24 23 22 21 20 19 16 15 13 12 11 11 9 12 14 14 15 13 11 13 13 12 12 11 11 11 12 13 14 15 16 16 18 18 18 18 19 19 20 20 21 22 22
25 22 20 20 18 17 15 14 13 11 9 8 7 8 8 9 11 13 14 13 12 11 11 10 11 11 12 13 14 15 15 16 17 17 18 18 18 18 19 20 20 22 21
21 19 18 17 16 15 14 13 12 11 10 9 10 10 9 9 9 10 10 10 10 10 10 11 11 11 12 13 14 15 15 16 16 17 17 18 18 18 18 19 20 21 22
18 17 16 16 15 14 14 13 13 11 10 9 8 9 11 9 8 8 8 9 9 10 10 11 11 11 12 13 14 14 14 15 16 17 17 18 18 18 19 20 21 21 22
17 16 15 15 15 14 14 13 12 10 9 8 7 7 7 7 8 8 9 10 11 12 12 12 12 12 12 13 14 14 15 15 16 18 19 19 19 19 20 21 22 23 23
16 15 15 15 14 13 13 12 11 9 8 7 6 6 7 7 8 8 10 12 13 13 13 12 11 11 13 15 16 17 17 18 21 22 22 22 22 19 21 22 22 22 22
15 16 15 14 13 13 11 10 8 8 7 6 6 6 7 7 8 10 11 13 13 13 12 11 11 13 15 17 18 19 20 23 24 24 24 24 23 22 20 20 20 20 21
14 14 14 13 12 11 9 8 6 6 5 5 6 7 8 8 10 11 12 13 14 13 12 12 13 15 17 18 18 21 22 23 23 24 25 25 24 20 19 21 21 21 20
Wind_Direction
190 193 195 197 199 197 197 204 207 205 205 208 218 218 221 228 235 241 250 252 249 254 259 261 264 265 262 263 276 277 273 268 261 273 268 274 268 268 268 266 264 263 253
193 192 196 199 201 204 205 208 210 213 212 215 217 221 228 236 242 244 249 248 249 253 259 260 261 263 266 276 280 276 286 276 270 267 272 277 272 272 270 259 260 257 252
196 197 198 202 206 208 210 210 215 217 220 224 228 232 236 239 242 246 249 251 254 256 259 262 263 270 277 281 285 281 288 288 278 267 272 278 274 266 265 248 242 241 232
200 201 202 205 208 212 213 214 214 216 219 224 228 233 236 239 243 245 248 252 258 259 262 273 278 275 279 279 287 288 291 289 282 278 273 275 270 263 258 248 240 237 234
202 204 205 205 209 211 215 217 218 219 221 226 231 235 238 242 249 249 250 255 258 262 265 258 270 276 278 281 285 282 283 279 278 277 277 271 269 265 266 255 251 247 241
201 204 202 201 205 209 213 216 220 222 227 231 235 240 246 241 246 250 249 255 262 265 269 271 276 276 278 280 284 286 285 284 279 276 273 268 270 272 268 260 254 246 243
201 203 201 201 204 208 211 214 217 222 221 222 224 228 233 241 251 256 259 262 266 269 271 272 276 283 290 297 300 300 298 291 283 278 275 275 273 267 261 251 247 247 251
193 196 196 196 197 197 200 205 209 213 217 224 231 237 241 247 251 256 263 268 270 271 276 290 295 306 312 313 317 321 321 321 321 321 313 303 294 289 285 279 275 272 270
181 184 183 181 187 192 195 200 205 211 215 220 216 216 227 237 248 249 260 276 281 302 334 343 340 338 353 354 341 333 328 323 320 314 307 300 293 289 287 285 282 282 285
178 177 178 180 185 185 191 196 197 198 199 192 192 172 151 130 102 49 30 5 13 27 18 6 2 349 334 328 328 327 326 321 317 316 315 313 309 307 306 300 296 288 283
178 183 184 176 175 176 174 165 163 160 151 137 127 114 103 89 75 68 63 39 31 17 6 353 345 336 330 329 329 327 325 320 320 322 321 319 319 316 307 304 301 280 276
151 152 152 147 143 140 142 134 131 132 129 120 113 105 94 86 80 70 49 27 14 1 354 347 344 343 345 351 344 345 342 347 337 336 334 330 322 315 300 293 289 286 287
140 141 138 134 131 130 127 126 125 123 121 118 110 99 88 76 58 44 20 12 5 359 359 355 356 0 6 353 359 358 359 339 335 333 328 325 323 317 313 315 310 308 305
129 129 131 129 126 125 126 124 119 114 112 107 103 96 87 74 59 35 13 9 5 4 7 360 0 5 3 2 360 354 349 352 351 341 334 327 322 319 317 317 315 310 306
123 126 126 123 125 125 120 117 120 117 117 114 109 101 79 52 34 12 8 1 2 6 14 360 357 2 359 354 350 348 343 344 343 336 327 323 320 318 314 313 310 307 307
122 125 123 120 117 112 115 117 112 108 107 105 107 85 67 51 26 1 356 356 356 357 16 13 5 1 356 351 346 341 337 334 329 329 325 322 319 318 315 314 314 311 310
129 125 123 118 115 112 108 107 108 103 98 93 83 65 38 24 11 1 2 17 1 28 33 20 11 4 -0 355 349 343 337 331 329 328 325 322 321 321 322 320 319 316 313
125 124 122 115 110 107 103 99 95 93 82 68 52 30 16 4 1 5 18 39 32 30 32 23 14 5 359 351 343 338 334 331 330 327 326 323 322 320 319 319 317 315 313
124 123 122 119 115 111 106 100 98 95 94 85 66 35 24 25 25 28 39 41 38 28 23 16 6 357 351 346 337 336 333 330 327 325 323 320 319 320 318 317 315 314 315
118 119 117 115 113 108 104 101 94 91 85 76 66 63 63 34 34 31 26 30 28 18 9 3 354 348 343 340 336 332 329 327 326 326 323 324 323 319 318 318 317 316 316
119 117 115 109 105 107 105 99 96 90 80 66 63 58 62 51 38 29 21 14 10 3 353 349 344 341 338 334 331 329 327 326 327 327 326 322 320 320 318 316 316 315 314
116 115 113 109 106 105 102 97 92 87 83 76 58 33 43 37 29 21 9 358 356 349 345 339 339 334 334 329 328 327 329 328 327 323 321 320 320 319 317 315 315 315 315
112 111 109 106 104 101 95 89 86 84 76 68 53 37 26 20 13 5 357 347 345 344 340 340 338 337 336 334 336 335 327 322 320 316 316 315 315 313 311 314 313 313 314
113 114 111 109 102 94 90 86 84 80 72 57 41 27 13 7 3 355 350 347 347 346 345 345 345 346 342 340 337 331 327 323 321 320 317 312 310 312 308 306 310 312 314
113 110 108 103 100 95 90 85 79 68 56 40 24 11 1 360 356 351 349 347 347 345 343 343 343 340 339 335 333 334 331 327 323 321 319 317 310 307 310 309 309 310 310
110 108 106 102 97 94 88 80 70 56 38 20 8 360 354 350 348 346 343 341 339 336 335 335 334 333 333 334 334 331 329 327 327 327 323 318 313 309 304 297 296 301 306